Location: Unspecified
(47.1121°N, 116.3927°W)
Time: 20:08:02
(UTC-07:00)

Cosmos 2058 - Visible Passes

Search period start: 23 September 2017 00:00
Search period end: 03 October 2017 00:00
Orbit: 564 x 585 km, 82.5° (Epoch: 23 September)

Date Brightness Start Highest point End Pass type
(mag) Time Alt. Az. Time Alt. Az. Time Alt. Az.
23 Sep 5.3 21:44:32 10° N 21:45:39 17° N 21:45:39 17° N visible
24 Sep 5.3 21:47:48 10° N 21:48:59 18° N 21:48:59 18° N visible
25 Sep 5.3 21:51:05 10° N 21:52:20 19° N 21:52:20 19° N visible
26 Sep 5.3 20:19:11 10° NE 20:19:30 11° NE 20:19:30 11° NE visible
26 Sep 5.4 21:54:26 10° NNW 21:55:44 19° NNW 21:55:44 19° NNW visible
27 Sep 5.1 20:21:55 10° NNE 20:22:53 13° NE 20:22:53 13° NE visible
27 Sep 5.4 21:57:48 10° NNW 21:59:06 19° NNW 21:59:06 19° NNW visible
28 Sep 4.9 20:24:52 10° NNE 20:26:17 16° NE 20:26:17 16° NE visible
28 Sep 5.5 22:01:14 10° NNW 22:02:32 18° NNW 22:02:32 18° NNW visible
29 Sep 4.7 20:27:54 10° NNE 20:29:44 20° NE 20:29:44 20° NE visible
29 Sep 5.7 22:04:42 10° NNW 22:05:57 17° NW 22:05:57 17° NW visible
30 Sep 4.5 20:31:01 10° N 20:33:10 24° NNE 20:33:10 24° NNE visible
30 Sep 5.8 22:08:16 10° NW 22:09:25 16° NW 22:09:25 16° NW visible
01 Oct 4.2 20:34:12 10° N 20:36:39 29° NNE 20:36:39 29° NNE visible
01 Oct 5.9 22:11:55 10° NW 22:12:53 14° NW 22:12:53 14° NW visible
02 Oct 3.9 20:37:25 10° N 20:40:09 36° NNE 20:40:09 36° NNE visible
02 Oct 6.1 22:15:43 10° NW 22:16:24 12° WNW 22:16:24 12° WNW visible
